When you browse on this site, cookies collect data to enhance your experience and personalize the content and advertising you see.
Visit our Privacy Policy to learn more. By continuing to use the site, you agree to this use of cookies and data.
  • In Hungary
  • List of Countries
  • For 7 days
  • Water Temperature
  • Satellite Maps
  • Weather Map
  • News
  • Weather Widgets
  • user-avatar
    Login

    Hourly Weather San Sebastian de los Reyes

    Today, 19 November, Monday

    Time Temperature Precipitation Wind Pressure Humidity
    00:00 +10°C° 0 mm 4 mps 695 mmHg 86%
    01:00 +9°C° 0.4 mm 3 mps 695 mmHg 86%
    02:00 +9°C° 0.4 mm 3 mps 695 mmHg 85%
    03:00 +9°C° 0.4 mm 3 mps 695 mmHg 85%
    04:00 +9°C° 0.1 mm 3 mps 695 mmHg 85%
    05:00 +9°C° 0.1 mm 2 mps 695 mmHg 84%
    06:00 +8°C° 0 mm 2 mps 694 mmHg 83%
    07:00 +9°C° 0 mm 2 mps 695 mmHg 81%
    08:00 +9°C° 0 mm 2 mps 695 mmHg 78%
    09:00 +10°C° 0 mm 2 mps 695 mmHg 75%
    10:00 +12°C° 0 mm 2 mps 695 mmHg 70%
    11:00 +13°C° 0 mm 1 mps 694 mmHg 66%
    12:00 +13°C° 0 mm 1 mps 694 mmHg 62%
    13:00 +14°C° 0 mm 1 mps 694 mmHg 61%
    14:00 +14°C° 0 mm 2 mps 694 mmHg 61%
    15:00 +14°C° 0 mm 2 mps 693 mmHg 61%
    16:00 +13°C° 0 mm 2 mps 693 mmHg 66%
    17:00 +12°C° 0 mm 2 mps 693 mmHg 70%
    18:00 +12°C° 0 mm 2 mps 693 mmHg 75%
    19:00 +10°C° 0.1 mm 2 mps 693 mmHg 78%
    20:00 +10°C° 0.1 mm 2 mps 694 mmHg 80%
    21:00 +9°C° 0.1 mm 2 mps 694 mmHg 83%
    22:00 +9°C° 0.1 mm 2 mps 694 mmHg 84%
    23:00 +9°C° 0.1 mm 2 mps 694 mmHg 85%

    Tomorrow, 20 November, Tuesday

    Time Temperature Precipitation Wind Pressure Humidity
    00:00 +9°C° 0.1 mm 3 mps 694 mmHg 86%
    01:00 +9°C° 0.1 mm 3 mps 694 mmHg 87%
    02:00 +9°C° 0.1 mm 3 mps 693 mmHg 88%
    03:00 +9°C° 0.1 mm 3 mps 693 mmHg 89%
    04:00 +9°C° 0.2 mm 3 mps 693 mmHg 90%
    05:00 +8°C° 0.2 mm 4 mps 693 mmHg 90%
    06:00 +7°C° 0.2 mm 4 mps 693 mmHg 91%
    07:00 +8°C° 0.4 mm 4 mps 693 mmHg 90%
    08:00 +8°C° 0.4 mm 4 mps 693 mmHg 89%
    09:00 +8°C° 0.4 mm 5 mps 693 mmHg 88%
    10:00 +9°C° 0.5 mm 5 mps 693 mmHg 83%
    11:00 +9°C° 0.5 mm 6 mps 693 mmHg 78%
    12:00 +10°C° 0.5 mm 6 mps 693 mmHg 73%
    13:00 +10°C° 0.3 mm 6 mps 693 mmHg 70%
    14:00 +10°C° 0.3 mm 7 mps 693 mmHg 66%
    15:00 +10°C° 0.3 mm 7 mps 693 mmHg 63%
    16:00 +9°C° 0.1 mm 6 mps 694 mmHg 68%
    17:00 +8°C° 0.1 mm 5 mps 694 mmHg 73%
    18:00 +7°C° 0.1 mm 5 mps 695 mmHg 79%
    19:00 +7°C° 0 mm 4 mps 695 mmHg 82%
    20:00 +7°C° 0 mm 4 mps 695 mmHg 85%
    21:00 +6°C° 0 mm 4 mps 696 mmHg 88%
    22:00 +6°C° 0 mm 4 mps 696 mmHg 89%
    23:00 +6°C° 0 mm 4 mps 696 mmHg 89%

    Day after tomorrow, 21 November, Wednesday

    Time Temperature Precipitation Wind Pressure Humidity
    00:00 +7°C° 0 mm 4 mps 697 mmHg 89%
    01:00 +7°C° 0.1 mm 3 mps 697 mmHg 90%
    02:00 +7°C° 0.1 mm 3 mps 697 mmHg 91%
    03:00 +7°C° 0.1 mm 3 mps 697 mmHg 93%
    04:00 +7°C° 0.2 mm 3 mps 698 mmHg 91%
    05:00 +6°C° 0.2 mm 4 mps 698 mmHg 90%
    06:00 +7°C° 0.2 mm 4 mps 698 mmHg 89%
    07:00 +7°C° 0 mm 4 mps 699 mmHg 88%
    08:00 +7°C° 0 mm 4 mps 700 mmHg 86%
    09:00 +7°C° 0 mm 4 mps 700 mmHg 84%
    10:00 +8°C° 0.1 mm 4 mps 700 mmHg 79%
    11:00 +9°C° 0.1 mm 5 mps 701 mmHg 73%
    12:00 +10°C° 0.1 mm 5 mps 701 mmHg 68%
    13:00 +10°C° 0.1 mm 5 mps 701 mmHg 66%
    14:00 +10°C° 0.1 mm 5 mps 701 mmHg 64%
    15:00 +10°C° 0.1 mm 5 mps 701 mmHg 63%
    16:00 +9°C° 0.2 mm 5 mps 701 mmHg 69%
    17:00 +8°C° 0.2 mm 4 mps 701 mmHg 74%
    18:00 +9°C° 0.2 mm 3 mps 702 mmHg 80%
    19:00 +8°C° 0.1 mm 3 mps 702 mmHg 82%
    20:00 +8°C° 0.1 mm 3 mps 703 mmHg 85%
    21:00 +7°C° 0.1 mm 2 mps 703 mmHg 87%
    22:00 +7°C° 0 mm 2 mps 703 mmHg 88%
    23:00 +7°C° 0 mm 2 mps 703 mmHg 89%

    22 November, Thursday

    Time Temperature Precipitation Wind Pressure Humidity
    00:00 +6°C° 0 mm 2 mps 704 mmHg 90%
    01:00 +6°C° 0 mm 2 mps 704 mmHg 91%
    02:00 +7°C° 0 mm 1 mps 704 mmHg 91%
    03:00 +7°C° 0 mm 1 mps 704 mmHg 91%
    04:00 +6°C° 0 mm 1 mps 704 mmHg 91%
    05:00 +6°C° 0 mm 1 mps 704 mmHg 91%
    06:00 +6°C° 0 mm 1 mps 704 mmHg 91%
    07:00 +7°C° 0 mm 1 mps 705 mmHg 88%
    08:00 +8°C° 0 mm 1 mps 705 mmHg 85%
    09:00 +8°C° 0 mm 1 mps 705 mmHg 82%
    10:00 +9°C° 0 mm 1 mps 705 mmHg 78%
    11:00 +10°C° 0 mm 1 mps 705 mmHg 73%
    12:00 +10°C° 0 mm 2 mps 705 mmHg 69%
    13:00 +12°C° 0 mm 2 mps 704 mmHg 67%
    14:00 +12°C° 0 mm 1 mps 704 mmHg 65%
    15:00 +12°C° 0 mm 1 mps 704 mmHg 63%
    16:00 +11°C° 0 mm 1 mps 704 mmHg 68%
    17:00 +11°C° 0 mm 1 mps 704 mmHg 72%
    18:00 +10°C° 0 mm 1 mps 704 mmHg 76%
    19:00 +10°C° 0.1 mm 1 mps 704 mmHg 77%
    20:00 +10°C° 0.1 mm 1 mps 705 mmHg 77%
    21:00 +10°C° 0.1 mm 1 mps 705 mmHg 78%
    22:00 +10°C° 0 mm 1 mps 705 mmHg 79%
    23:00 +10°C° 0 mm 1 mps 705 mmHg 81%

    23 November, Friday

    Time Temperature Precipitation Wind Pressure Humidity
    00:00 +10°C° 0 mm 1 mps 705 mmHg 82%
    01:00 +10°C° 0.2 mm 1 mps 704 mmHg 85%
    02:00 +10°C° 0.2 mm 1 mps 704 mmHg 87%
    03:00 +9°C° 0.2 mm 1 mps 704 mmHg 89%
    04:00 +9°C° 0.3 mm 1 mps 704 mmHg 90%
    05:00 +10°C° 0.3 mm 1 mps 703 mmHg 91%
    06:00 +10°C° 0.3 mm 1 mps 703 mmHg 92%
    07:00 +10°C° 0.5 mm 1 mps 703 mmHg 90%
    08:00 +10°C° 0.5 mm 1 mps 704 mmHg 89%
    09:00 +9°C° 0.5 mm 2 mps 704 mmHg 88%
    10:00 +10°C° 0.8 mm 1 mps 704 mmHg 87%
    11:00 +11°C° 0.8 mm 1 mps 703 mmHg 86%
    12:00 +11°C° 0.8 mm 1 mps 703 mmHg 85%
    13:00 +11°C° 0.8 mm 1 mps 703 mmHg 85%
    14:00 +11°C° 0.8 mm 1 mps 703 mmHg 86%
    15:00 +11°C° 0.8 mm 1 mps 703 mmHg 86%
    16:00 +10°C° 0.3 mm 1 mps 703 mmHg 86%
    17:00 +10°C° 0.3 mm 1 mps 704 mmHg 86%
    18:00 +10°C° 0.3 mm 1 mps 704 mmHg 86%
    19:00 +10°C° 0 mm 1 mps 704 mmHg 86%
    20:00 +9°C° 0 mm 1 mps 704 mmHg 85%
    21:00 +9°C° 0 mm 1 mps 705 mmHg 85%
    22:00 +9°C° 0 mm 1 mps 705 mmHg 85%
    23:00 +8°C° 0 mm 1 mps 704 mmHg 85%

    24 November, Saturday

    Time Temperature Precipitation Wind Pressure Humidity
    00:00 +8°C° 0 mm 1 mps 704 mmHg 85%
    01:00 +8°C° 0 mm 1 mps 704 mmHg 83%
    02:00 +8°C° 0 mm 1 mps 704 mmHg 82%
    03:00 +8°C° 0 mm 1 mps 704 mmHg 81%
    04:00 +8°C° 0.1 mm 1 mps 704 mmHg 81%
    05:00 +8°C° 0.1 mm 1 mps 704 mmHg 80%
    06:00 +8°C° 0.1 mm 1 mps 704 mmHg 80%
    07:00 +9°C° 0.3 mm 1 mps 704 mmHg 79%
    08:00 +9°C° 0.3 mm 1 mps 705 mmHg 79%
    09:00 +9°C° 0.3 mm 1 mps 705 mmHg 78%
    10:00 +10°C° 0.4 mm 1 mps 704 mmHg 78%
    11:00 +10°C° 0.4 mm 1 mps 704 mmHg 78%
    12:00 +11°C° 0.4 mm 1 mps 704 mmHg 78%
    13:00 +11°C° 0.5 mm 1 mps 703 mmHg 80%
    14:00 +11°C° 0.5 mm 1 mps 703 mmHg 82%
    15:00 +11°C° 0.5 mm 1 mps 703 mmHg 84%
    16:00 +10°C° 0.3 mm 1 mps 703 mmHg 85%
    17:00 +10°C° 0.3 mm 1 mps 703 mmHg 87%
    18:00 +10°C° 0.3 mm 1 mps 703 mmHg 88%
    19:00 +9°C° 0.1 mm 1 mps 703 mmHg 88%
    20:00 +9°C° 0.1 mm 1 mps 703 mmHg 88%
    21:00 +9°C° 0.1 mm 1 mps 703 mmHg 89%
    22:00 +8°C° 0 mm 1 mps 703 mmHg 88%
    23:00 +7°C° 0 mm 2 mps 703 mmHg 88%
    Show more